Flag for U.S.A. Weather past 2 weeks in Germantown, Maryland, U.S.A.

54 °F


Feels Like: 54 °F
Forecast: 54 / 73 °F
Wind: No wind

Location: Frederick Municipal Airport

Current Time: Oct 7, 2015 at 4:57:32 AM

Latest Report: Oct 7, 2015 at 4:25 AM

Visibility: 4 mi

Pressure: 30.03 "Hg

Humidity: 100%

Dew point: 54 °F

Location of GermantownLocation

Historic Weather in Germantown — Graph


Germantown temperature yesterday

Maximum temperature yesterday: 75 °F (at 2:47 PM)
Minimum temperature yesterday: 41 °F (at 5:00 AM)
Average temperature yesterday: 53 °F

Past Weeks' High & Low Weather Summary

High82 °F (Sep 28, 1:55 PM)100% (Sep 22, 3:15 AM)30.45 "Hg (Sep 22, 3:15 AM)
Low41 °F (Oct 6, 5:00 AM)41% (Oct 6, 1:55 PM)29.71 "Hg (Sep 30, 4:55 AM)
Average58 °F91%30.19 "Hg
* Reported Sep 22 3:15 AM — Oct 7 3:45 AM, Germantown, Weather by CustomWeather, © 2015

Note: Actual official high and low records may vary slightly from our data, if they occured in-between our weather recording intervals... More about our weather records


Germantown weather history for previous 24 hours

Time TempWeatherWind HumidityBarometerVisibility
3:45 AM
Wed, Oct 7
54 °FMostly cloudy.No wind100%30.04 "Hg10 mi
3:25 AM54 °FOvercast.No wind100%30.04 "Hg10 mi
3:05 AM54 °FFog.No wind100%30.04 "Hg5 mi
2:45 AM54 °FFog.No wind100%30.04 "Hg2 mi
2:25 AM54 °FClear.No wind100%30.04 "Hg10 mi
2:05 AM54 °FClear.No wind100%30.04 "Hg10 mi
1:45 AM54 °FClear.No wind100%30.04 "Hg10 mi
1:25 AM54 °FClear.No wind100%30.04 "Hg10 mi
1:05 AM54 °FClear.No wind100%30.04 "Hg10 mi
12:45 AM54 °FFog.3 mph100%30.04 "Hg2 mi
12:25 AM54 °FClear.No wind100%30.03 "Hg7 mi
11:45 PM
Tue, Oct 6
54 °FFog.No wind100%30.04 "Hg2 mi
11:25 PM54 °FClear.No wind100%30.04 "Hg10 mi
10:45 PM55 °FClear.No wind100%30.03 "Hg10 mi
10:25 PM55 °FClear.No wind100%30.03 "Hg10 mi
10:05 PM55 °FFog.No wind100%30.03 "Hg4 mi
9:45 PM55 °FClear.No wind100%30.03 "Hg7 mi
9:25 PM55 °FClear.No wind100%30.03 "Hg10 mi
9:05 PM57 °FClear.No wind100%30.03 "Hg10 mi
8:45 PM59 °FClear.No wind100%30.03 "Hg10 mi
8:25 PM59 °FClear.No wind100%30.03 "Hg10 mi
7:48 PM61 °FClear.No wind100%30.03 "Hg10 mi
6:48 PM70 °FSunny.5 mph64%30.03 "Hg10 mi
5:48 PM75 °FSunny.3 mph57%30.03 "Hg10 mi
4:47 PM73 °FSunny.6 mph57%30.03 "Hg10 mi
3:45 PM75 °FSunny.3 mph47%30.04 "Hg10 mi
2:47 PM75 °FSunny.No wind47%30.05 "Hg10 mi
1:55 PM73 °FSunny.3 mph41%30.07 "Hg10 mi
12:47 PM72 °FSunny.No wind50%30.10 "Hg10 mi
11:45 AM68 °FSunny.No wind56%30.11 "Hg10 mi
10:47 AM63 °FSunny.No wind68%30.12 "Hg10 mi
8:50 AM66 °FSunny.No wind64%30.14 "Hg10 mi
7:50 AM45 °FClear.No wind100%30.14 "Hg10 mi
6:55 AM43 °FFog.No wind100%30.13 "Hg7 mi
6:20 AM41 °FFog.No wind100%30.13 "Hg1 mi
5:40 AM43 °FFog.No wind100%30.12 "Hg3 mi
5:20 AM41 °FFog.No wind100%30.12 "Hg4 mi
5:00 AM41 °FFog.No wind100%30.12 "Hg3 mi
4:40 AM43 °FFog.No wind100%30.12 "Hg5 mi
4:20 AM43 °FPassing clouds.No wind100%30.12 "Hg7 mi
4:00 AM43 °FFog.No wind100%30.12 "Hg1 mi
Weather by CustomWeather, © 2015

See weather overviewHow to use our weather pages